Simultaneous Nadir Overpasses (SNOs) Predictions

Prediction of SNOs between AURA and NPP Satellite Orbit:

Table of predicted SNOs for the next 14.0 days since TLE Epoch: 8/24/2012
Index Date (AURA) Time (AURA) AURA Lat,Lon Date (NPP) Time (NPP) NPP Lat,Lon Distance(km) Time Diff (sec)
1 08/25/2012 12:14:12 -79.72, 74.64 08/25/2012 12:13:21 -79.72, 74.72 1.62 51
2 08/25/2012 13:03:33 79.89,-116.38 08/25/2012 13:04:00 79.90,-116.32 1.29 27
3 08/28/2012 04:30:37 -79.78,-169.02 08/28/2012 04:30:14 -79.78,-168.97 1.09 23
4 08/28/2012 05:19:58 79.95, -0.04 08/28/2012 05:20:53 79.96, -0.00 0.90 55
5 08/30/2012 19:57:38 79.67, 138.43 08/30/2012 19:56:26 79.68, 138.57 3.04 72
6 08/30/2012 20:47:02 -79.79, -53.03 08/30/2012 20:47:08 -79.78, -53.19 3.21 6
7 09/02/2012 12:14:03 79.71,-105.41 09/02/2012 12:13:20 79.72,-105.35 1.28 43
8 09/02/2012 13:03:24 -79.94, 63.99 09/02/2012 13:03:58 -79.94, 64.07 1.59 34
9 09/05/2012 04:30:26 79.81, 11.23 09/05/2012 04:30:12 79.82, 11.33 2.06 14




NCC Satellite Simultaneous Nadir Overpasses (SNOs) Prediction Service
